(321422) = 2007 EY100 = 2009 QJ21

Discovered at La Sagra on 2009-08-19 by OAM.

Orbit

Orbit type: Main Belt

Note: WebGL enabled browser required.

epoch2024-03-31.0
epoch JD2460400.5
perihelion date2020-03-03.40102
perihelion JD2458911.90102
argument of perihelion (°)291.19904
ascending node (°)35.67186
inclination (°)2.09478
eccentricity0.2052293
perihelion distance (AU)2.4195427
Tisserand w.r.t. Jupiter3.2
ΔV w.r.t. Earth (km/sec)9.8
semimajor axis (AU)3.0443281
mean anomaly (°)276.21332
mean daily motion (°/day)0.18555250
aphelion distance (AU)3.669
period (years)5.31
P-vector [x]0.83707793
P-vector [y]-0.48740872
P-vector [z]-0.24846181
Q-vector [x]0.54666826
Q-vector [y]0.76289949
Q-vector [z]0.34516400
absolute magnitude16.54
phase slope0.15
uncertainty0
referenceE2024-GD4
observations used216
oppositions16
arc length (days)7118
first opposition used2004
last opposition used2024
residual rms (arc-secs)0.85
perturbers coarse indicatorM-v
perturbers precise indicator003Ek
first observation date used2004-10-13.0
last observation date used2024-04-09.0
computer nameMPCLINUX
JD of orbit computation2456909.196137
perihelion JD uncertainty (days)6.7753E-05
argument of perihelion uncertainty (°)1.6963E-04
ascending node uncertainty (°)1.6846E-04
inclination uncertainty (°)4.1284E-06
eccentricity uncertainty 1.0237E-07
perihelion distance uncertainty (AU)3.4074E-07
Minimum Orbit Intersection Distances (in AU)
for orbit epoch: 2460400.5, reference: E2024-GD4
Mercury2.00735
Venus1.69174
Earth1.40882
Mars1.03577
Jupiter1.67403
Saturn5.52141
Uranus14.79
Neptune26.6263

Observations

216 total observations over interval: 2004 10 13.17096 – 2023 03 13.277043
These data are available for download (format description).

Date (UT) J2000 RA J2000 Dec Magn Location Ref
2004 10 13.17096 01 00 25.31 +05 16 41.4 20.3 V 691 – Steward Observatory, Kitt Peak-Spacewatch MPS 305039
2004 10 13.19789 01 00 23.98 +05 16 35.3 19.8 V 691 – Steward Observatory, Kitt Peak-Spacewatch MPS 305039
2004 10 13.22479 01 00 22.65 +05 16 28.8 19.7 V 691 – Steward Observatory, Kitt Peak-Spacewatch MPS 305039
2005 12 05.39872 07 22 56.10 +24 36 22.9 21.0 V G96 – Mt. Lemmon Survey MPS 306745
2005 12 05.40454 07 22 55.66 +24 36 24.3 21.2 V G96 – Mt. Lemmon Survey MPS 306745
2005 12 05.41032 07 22 55.45 +24 36 25.0 21.9 V G96 – Mt. Lemmon Survey MPS 306745
2005 12 05.41609 07 22 55.30 +24 36 25.9 22.0 V G96 – Mt. Lemmon Survey MPS 306745
2007 03 11.29273 10 31 35.94 +11 49 47.4 22.4 V G96 – Mt. Lemmon Survey MPS 204730
2007 03 11.29830 10 31 35.68 +11 49 47.7 22.2 V G96 – Mt. Lemmon Survey MPS 204730
2007 03 11.30388 10 31 35.40 +11 49 49.4 21.8 V G96 – Mt. Lemmon Survey MPS 204730
2007 03 11.30938 10 31 35.18 +11 49 51.1 21.5 V G96 – Mt. Lemmon Survey MPS 204730
2007 03 15.25957 10 28 47.28 +12 04 17.1 21.9 V G96 – Mt. Lemmon Survey MPS 305039
2007 03 15.26837 10 28 46.88 +12 04 19.5 22.1 V G96 – Mt. Lemmon Survey MPS 305039
2007 03 15.27716 10 28 46.56 +12 04 21.3 21.9 V G96 – Mt. Lemmon Survey MPS 305039
2007 03 15.28591 10 28 46.12 +12 04 22.6 21.5 V G96 – Mt. Lemmon Survey MPS 305039
2008 04 06.29682 14 38 54.15 -15 24 38.4 20.8 V 691 – Steward Observatory, Kitt Peak-Spacewatch MPS 305039
2008 04 06.31443 14 38 53.45 -15 24 35.7 20.8 V 691 – Steward Observatory, Kitt Peak-Spacewatch MPS 305039
2008 04 06.33205 14 38 52.82 -15 24 34.1 20.8 V 691 – Steward Observatory, Kitt Peak-Spacewatch MPS 305039
2008 05 26.21022 14 01 44.11 -12 47 04.2 21.1 V G96 – Mt. Lemmon Survey MPS 305039
2008 05 26.21694 14 01 43.93 -12 47 02.0 21.5 V G96 – Mt. Lemmon Survey MPS 305039
2008 05 26.22375 14 01 43.71 -12 47 01.4 21.1 V G96 – Mt. Lemmon Survey MPS 305039
2008 05 26.23038 14 01 43.42 -12 46 59.9 20.8 V G96 – Mt. Lemmon Survey MPS 305039
2009 08 18.05593 22 40 42.66 -11 50 21.1 18.8 V J75 – OAM Observatory, La Sagra MPS 292717
2009 08 18.06826 22 40 42.12 -11 50 24.9 18.8 V J75 – OAM Observatory, La Sagra MPS 292717
2009 08 18.08067 22 40 41.53 -11 50 27.0 18.3 V J75 – OAM Observatory, La Sagra MPS 292717
2009 08 19.05242 22 40 00.32 -11 54 20.3 19.6 V J75 – OAM Observatory, La Sagra MPS 292717
2009 08 19.06473 22 39 59.77 -11 54 23.0 19.0 V J75 – OAM Observatory, La Sagra MPS 292717
2009 08 19.07786 22 39 59.16 -11 54 26.5 19.2 V J75 – OAM Observatory, La Sagra MPS 292717
2009 08 19.97810 22 39 20.48 -11 58 02.4 19.1 V J75 – OAM Observatory, La Sagra MPS 292717
2009 08 19.98028 22 39 20.38 -11 58 03.0 18.7 V J75 – OAM Observatory, La Sagra MPS 292717
2009 08 19.99150 22 39 19.87 -11 58 06.1 19.2 V J75 – OAM Observatory, La Sagra MPS 292717
2009 08 19.99368 22 39 19.77 -11 58 06.0 19.1 V J75 – OAM Observatory, La Sagra MPS 292717
2009 08 20.00485 22 39 19.30 -11 58 09.2 18.8 V J75 – OAM Observatory, La Sagra MPS 292717
2009 08 20.00703 22 39 19.16 -11 58 09.6 19.1 V J75 – OAM Observatory, La Sagra MPS 292717
2009 08 20.97800 22 38 36.73 -12 02 03.9 19.4 V J75 – OAM Observatory, La Sagra MPS 292717
2009 08 20.99139 22 38 36.07 -12 02 06.2 19.6 V J75 – OAM Observatory, La Sagra MPS 292717
2009 08 21.00475 22 38 35.45 -12 02 09.9 19.7 V J75 – OAM Observatory, La Sagra MPS 292717
2009 08 26.30463 22 34 35.97 -12 23 21.1 19.2 V 703 – Catalina Sky Survey MPS 292717
2009 08 26.31298 22 34 35.65 -12 23 22.4 19.4 V 703 – Catalina Sky Survey MPS 292717
2009 08 26.32125 22 34 35.04 -12 23 24.9 19.6 V 703 – Catalina Sky Survey MPS 292717
2009 08 26.32952 22 34 34.78 -12 23 26.6 19.2 V 703 – Catalina Sky Survey MPS 292717
2009 08 26.95977 22 34 05.89 -12 25 56.1 19.0 V J75 – OAM Observatory, La Sagra MPS 294483
2009 08 26.97311 22 34 05.22 -12 25 59.1 18.7 V J75 – OAM Observatory, La Sagra MPS 294483
2009 08 26.98640 22 34 04.58 -12 26 02.5 19.1 V J75 – OAM Observatory, La Sagra MPS 294483
2009 09 19.24641 22 17 50.89 -13 35 50.1 19.5 V 703 – Catalina Sky Survey MPS 297822
2009 09 19.25486 22 17 50.56 -13 35 53.2 20.6 V 703 – Catalina Sky Survey MPS 297822
2009 09 19.26340 22 17 50.28 -13 35 54.5 19.8 V 703 – Catalina Sky Survey MPS 297822
2009 09 19.27191 22 17 49.99 -13 35 55.0 19.8 V 703 – Catalina Sky Survey MPS 297822
2009 09 21.19487 22 16 50.62 -13 38 53.1 19.6 V 703 – Catalina Sky Survey MPS 297822
2009 09 21.20144 22 16 50.37 -13 38 53.8 20.6 V 703 – Catalina Sky Survey MPS 297822
2009 09 21.20812 22 16 50.12 -13 38 53.2 20.4 V 703 – Catalina Sky Survey MPS 297822
2009 09 21.21482 22 16 49.98 -13 38 54.6 19.2 V 703 – Catalina Sky Survey MPS 297822
2009 11 09.16029 22 22 57.61 -11 53 07.9 20.9 V 291 – LPL/Spacewatch II MPS 302308
2009 11 09.16913 22 22 57.98 -11 53 05.6 21.1 V 291 – LPL/Spacewatch II MPS 302308
2009 11 09.17620 22 22 58.27 -11 53 02.8 20.9 V 291 – LPL/Spacewatch II MPS 302308
2010 12 13.37608 05 35 07.26 +25 33 43.2 20.1 V G96 – Mt. Lemmon Survey MPS 359151
2010 12 13.38133 05 35 06.97 +25 33 43.4 20.0 V G96 – Mt. Lemmon Survey MPS 359151
2010 12 13.38657 05 35 06.64 +25 33 43.4 20.1 V G96 – Mt. Lemmon Survey MPS 359151
2010 12 13.39174 05 35 06.36 +25 33 43.3 19.9 V G96 – Mt. Lemmon Survey MPS 359151
2012 01 26.46957 09 54 14.94 +15 39 13.5 21.9 V G96 – Mt. Lemmon Survey MPS 408864
2012 01 26.47484 09 54 14.79 +15 39 15.4 21.4 V G96 – Mt. Lemmon Survey MPS 408864
2012 01 26.48008 09 54 14.50 +15 39 16.4 22.3 V G96 – Mt. Lemmon Survey MPS 408865
2012 01 26.48530 09 54 14.29 +15 39 18.0 22.1 V G96 – Mt. Lemmon Survey MPS 408865
2013 04 11.37957 13 03 03.128 -05 44 13.57 21.7 w F51 – Pan-STARRS 1, Haleakala MPS 463994
2013 04 11.39321 13 03 02.463 -05 44 09.81 21.6 w F51 – Pan-STARRS 1, Haleakala MPS 463994
2013 04 11.40695 13 03 01.813 -05 44 06.56 21.4 w F51 – Pan-STARRS 1, Haleakala MPS 463994
2013 04 11.42067 13 03 01.153 -05 44 03.22 21.3 w F51 – Pan-STARRS 1, Haleakala MPS 463994
2014 07 01.48065 19 45 51.313 -24 35 36.44 19.9 w F51 – Pan-STARRS 1, Haleakala MPS 522146
2014 07 01.49426 19 45 50.672 -24 35 38.52 19.7 w F51 – Pan-STARRS 1, Haleakala MPS 522146
2014 07 01.50790 19 45 50.030 -24 35 40.64 19.6 w F51 – Pan-STARRS 1, Haleakala MPS 522146
2014 07 03.45259 19 44 21.530 -24 40 44.85 19.6 w F51 – Pan-STARRS 1, Haleakala MPS 522146
2014 07 03.46673 19 44 20.840 -24 40 47.07 19.6 w F51 – Pan-STARRS 1, Haleakala MPS 522146
2014 07 03.48090 19 44 20.146 -24 40 49.35 19.6 w F51 – Pan-STARRS 1, Haleakala MPS 522146
2014 07 03.49506 19 44 19.450 -24 40 51.49 19.7 w F51 – Pan-STARRS 1, Haleakala MPS 522146
2014 07 07.49118 19 41 07.535 -24 51 04.96 19.5 w F51 – Pan-STARRS 1, Haleakala MPS 522758
2014 07 07.50107 19 41 07.029 -24 51 06.41 19.4 w F51 – Pan-STARRS 1, Haleakala MPS 522758
2014 07 07.52083 19 41 06.000 -24 51 09.14 19.6 w F51 – Pan-STARRS 1, Haleakala MPS 522758
2014 07 09.44182 19 39 30.244 -24 55 55.07 20.0 i F51 – Pan-STARRS 1, Haleakala MPS 523368
2014 07 09.45178 19 39 29.732 -24 55 56.50 19.9 i F51 – Pan-STARRS 1, Haleakala MPS 523368
2014 07 09.46172 19 39 29.194 -24 55 57.83 19.8 i F51 – Pan-STARRS 1, Haleakala MPS 523368
2014 07 28.36188 19 23 30.088 -25 32 23.56 20.3 w F51 – Pan-STARRS 1, Haleakala MPS 525362
2014 07 28.36321 19 23 30.019 -25 32 23.73 20.1 w F51 – Pan-STARRS 1, Haleakala MPS 525362
2014 07 28.37387 19 23 29.493 -25 32 24.58 20.1 w F51 – Pan-STARRS 1, Haleakala MPS 525362
2014 07 28.38322 19 23 29.030 -25 32 25.20 20.1 w F51 – Pan-STARRS 1, Haleakala MPS 525362
2014 07 28.38456 19 23 28.971 -25 32 25.34 20.1 w F51 – Pan-STARRS 1, Haleakala MPS 525362
2014 07 28.39391 19 23 28.511 -25 32 26.06 20.1 w F51 – Pan-STARRS 1, Haleakala MPS 525362
2014 08 15.35492 19 12 45.314 -25 42 10.72 20.2 i F51 – Pan-STARRS 1, Haleakala MPS 527943
2014 08 15.36623 19 12 45.042 -25 42 10.56 20.2 i F51 – Pan-STARRS 1, Haleakala MPS 527943
2014 08 15.37756 19 12 44.753 -25 42 10.31 20.1 i F51 – Pan-STARRS 1, Haleakala MPS 527943
2015 11 21.34728 03 52 04.18 +21 30 44.7 19.8 V G96 – Mt. Lemmon Survey MPS 653293
2015 11 21.35235 03 52 03.92 +21 30 44.1 20.1 V G96 – Mt. Lemmon Survey MPS 653293
2015 11 21.35744 03 52 03.65 +21 30 43.3 20.2 V G96 – Mt. Lemmon Survey MPS 653293
